{"data":{"norad_id":60903,"intl_designator":"2024-154A","name":"STARLINK-11242 [DTC]","alt_names":[],"object_type":"PAYLOAD","status":"ACTIVE","operator":null,"country":"US","launch_date":"2024-08-31","launch_site_code":"AFETR","launch_vehicle":null,"mission":null,"orbit_class":"UNKNOWN","rcs_meters":null,"size_class":null,"mass_kg":null,"dimensions":null,"purposes":["comms"],"wikipedia_slug":null,"has_3d_model":false,"image_url":null,"decayed_at":null,"tle_current":{"epoch":"2026-05-25T04:38:12.250176Z","epoch_age_seconds":54421,"freshness":"FRESH","line1":"1 60903U 24154A   26145.19319734  .00000695  00000+0  10594-4 0  9991","line2":"2 60903  53.1585 113.8740 0000882  84.0581 276.0537 15.69704598100538","mean_motion":15.69704598,"eccentricity":8.82e-5,"inclination_deg":53.1585,"raan_deg":113.874,"arg_perigee_deg":84.0581,"mean_anomaly_deg":276.0537,"bstar":1.0594e-5,"rev_number":10053,"period_min":91.737005920397,"perigee_km":359.14792797411,"apogee_km":360.33648986656,"semimajor_km":6737.8792089203,"source":"CELESTRAK","updated_at":"2026-05-25T13:38:19.311756Z"}}}